User: anonymous   Login
Location: Unspecified
(40.9833°N, 0.0000°E)
Time: 15:46:22
(UTC+00:00)
Language:

Gurwin Techsat 1B - Orbit

View from above orbital plane
View from above orbital plane
View from above satellite
View from above satellite

Ground track
Ground track

The orbit data is extracted from the following two-line orbital elements,

1 25397U 98043D   19203.07320836 -.00000021  00000-0  10110-4 0  9995
2 25397  98.6896 142.8152 0000723   4.2372 355.8812 14.23667891 92625
Epoch (UTC): 22 July 2019 01:45:25
Eccentricity: 0.0000723
inclination: 98.6896°
perigee height: 812 km
apogee height: 813 km
right ascension of ascending node: 142.8152°
argument of perigee: 4.2372°
revolutions per day: 14.23667891
mean anomaly at epoch: 355.8812°
orbit number at epoch: 9262

The dashed part of the orbit path shows where the satellite is in the earth's shadow,  

DLR